GFSNE_850_thetae_189.txt.gz
Theta_e
301 302 302 302 302 302 302 302 303 305 305 305 305 304 304 305 305 305 306 306 306 305 304 302 299 298 297 296 296 296 299 302 302 305 306 307 317 319
301 301 301 301 301 302 302 302 302 302 303 303 304 303 303 303 304 305 305 305 305 305 305 304 301 299 298 297 296 296 297 300 301 302 304 304 313 320
301 300 300 300 300 301 301 301 301 301 301 302 302 302 302 302 303 303 305 305 305 305 305 305 303 301 299 298 296 295 295 297 299 299 301 303 303 314
300 300 300 299 299 299 299 299 300 300 299 299 301 301 301 302 302 303 304 305 305 305 305 305 304 303 301 300 297 296 295 295 296 297 298 300 301 301
299 299 299 299 299 299 299 298 298 298 299 299 299 300 301 301 302 303 303 304 305 305 305 305 304 304 303 301 299 297 296 295 295 295 295 296 298 299
298 298 298 298 298 298 298 298 298 298 298 298 299 300 300 301 302 302 301 302 303 304 304 304 304 304 303 302 299 299 297 295 294 294 294 294 295 296
297 297 297 297 298 298 297 297 297 297 298 298 298 299 300 301 301 301 301 301 301 302 303 303 303 304 303 303 300 298 296 295 295 294 293 294 294 294
293 294 294 296 297 296 296 296 297 297 297 298 299 300 298 299 300 299 299 300 300 301 301 302 303 303 302 300 296 295 295 295 295 294 294 293 293 294
291 291 292 294 297 297 296 295 296 297 297 297 297 299 298 299 300 298 298 299 299 299 299 300 301 302 301 299 299 299 298 297 295 295 293 293 293 293
289 290 292 295 297 297 297 296 295 295 297 297 297 297 297 297 297 297 298 297 298 299 299 299 300 301 301 301 301 300 299 298 297 295 294 293 292 292
290 289 290 292 296 297 297 296 294 293 293 293 296 296 297 297 297 297 297 296 298 297 297 297 298 299 299 299 299 299 298 298 297 295 293 293 292 292
291 291 290 289 289 291 294 293 291 291 293 291 294 295 295 295 296 296 296 297 296 297 297 297 297 297 296 296 297 298 298 298 297 294 293 292 292 292
287 290 291 290 289 289 289 289 291 292 293 293 291 293 293 294 294 294 296 296 297 297 297 297 297 296 296 296 296 295 292 293 295 293 292 291 291 291
286 287 287 287 288 288 288 289 291 292 291 290 291 292 292 292 293 294 295 295 296 296 297 297 296 296 296 296 296 296 296 291 290 290 290 290 291 291
287 287 287 287 287 287 288 288 290 291 291 290 289 289 290 290 291 292 294 294 294 295 295 295 295 296 295 295 295 295 295 295 295 293 291 290 290 290
288 287 287 287 287 288 288 288 289 291 290 289 290 290 290 291 291 292 292 292 293 293 294 294 294 294 294 294 295 295 295 294 293 293 292 290 289 290
288 288 288 288 288 288 287 287 288 289 288 288 289 289 289 289 290 291 291 291 291 291 292 293 293 292 293 294 294 294 294 294 294 293 293 293 293 290
288 288 288 288 288 288 287 287 287 288 287 287 287 288 287 288 288 290 290 290 290 290 291 291 292 292 292 292 293 293 293 293 293 293 292 293 293 292
288 288 288 287 287 287 287 286 286 286 287 286 286 286 286 286 287 288 290 291 290 290 290 290 291 291 291 291 292 292 293 293 292 292 292 292 292 292
286 286 287 287 287 286 286 285 285 286 286 286 286 286 286 286 286 287 289 289 290 290 290 290 290 291 291 292 291 291 291 291 291 291 291 292 291 291
286 286 286 286 286 286 285 285 285 285 286 286 286 286 286 286 286 286 287 288 289 290 289 290 290 291 291 291 290 290 290 290 290 290 290 290 290 290
285 285 285 285 285 285 284 284 285 285 286 286 286 286 286 286 286 286 286 287 288 289 290 289 290 290 290 291 291 290 290 289 289 289 289 289 289 289
285 285 285 285 285 285 285 283 284 285 285 285 285 285 286 285 286 286 285 285 287 288 289 289 289 289 289 290 290 290 289 289 288 288 289 289 289 288

GFSNE_850_thetae_192.txt.gz
Theta_e
301 301 301 301 301 301 301 302 304 304 304 304 306 307 307 306 307 306 306 306 305 305 305 306 305 304 301 299 298 297 296 297 301 300 302 303 316 319
301 301 301 300 300 300 300 300 302 304 303 302 302 304 304 305 304 303 303 304 304 305 305 306 305 305 303 300 299 298 296 296 298 300 300 301 312 318
301 300 300 299 300 299 299 299 299 301 302 302 301 300 302 302 302 304 304 304 304 304 305 305 305 305 305 303 300 299 296 296 296 298 299 300 300 313
299 298 298 298 298 299 299 299 299 299 300 300 300 299 300 300 301 302 301 303 303 303 304 305 305 305 305 304 303 300 297 296 295 296 297 298 299 299
298 298 298 297 297 298 298 299 298 298 298 299 299 300 299 299 300 300 301 302 302 302 303 304 305 305 305 304 303 301 298 296 295 295 295 296 297 297
296 296 296 296 295 296 297 298 298 298 298 299 299 298 298 298 299 300 302 301 302 302 301 302 304 304 304 304 303 302 299 297 296 294 294 294 295 296
293 293 293 292 293 293 296 297 297 298 297 298 299 299 298 300 299 299 299 299 300 300 300 300 302 303 304 304 304 303 300 297 296 294 294 293 294 294
292 291 291 290 291 291 293 297 296 296 296 296 296 296 297 297 297 298 297 298 298 299 300 300 300 301 302 303 303 303 302 297 294 294 294 293 293 294
290 290 290 290 290 291 294 297 297 297 296 295 295 296 297 297 297 297 297 297 297 298 298 298 299 299 300 301 300 298 296 295 295 295 294 293 293 293
290 291 290 289 289 289 293 296 296 296 296 295 294 293 294 296 297 297 297 297 297 297 297 297 297 298 298 300 301 301 301 300 298 296 294 294 293 293
289 290 290 290 290 290 289 290 294 294 294 293 293 293 292 295 295 296 296 296 296 297 297 296 296 297 297 298 299 300 300 300 299 296 295 294 293 292
289 289 289 288 287 289 289 290 293 293 293 293 293 293 293 291 294 294 294 294 295 295 296 297 297 297 297 296 297 298 298 298 297 297 295 293 293 292
288 288 289 290 287 287 287 291 291 292 292 292 292 293 292 290 291 292 293 293 294 295 296 297 297 297 296 296 296 294 295 292 297 296 294 292 292 292
288 288 289 289 287 288 288 288 288 288 290 291 292 292 291 291 290 290 291 292 293 294 295 295 295 296 296 297 296 296 296 296 292 294 294 293 293 292
286 287 287 287 287 288 289 289 288 290 291 292 291 290 290 290 290 290 291 291 293 293 293 294 294 295 295 295 295 296 296 295 294 290 290 291 291 293
289 289 288 288 289 289 289 289 289 289 289 289 290 289 288 289 289 290 291 291 292 291 291 292 293 294 294 294 294 294 294 295 295 295 294 291 290 290
288 288 289 289 289 289 288 289 288 288 288 289 288 287 287 288 288 288 289 291 291 291 291 291 292 292 293 293 293 294 294 293 294 294 294 293 290 289
288 288 288 288 289 288 288 287 287 287 287 287 287 286 286 286 287 287 288 289 290 291 290 290 290 291 291 292 292 292 292 293 293 293 293 292 293 293
288 288 288 288 288 287 287 287 286 286 286 286 286 286 286 286 286 286 286 287 289 289 290 290 290 290 290 291 291 292 292 292 292 292 292 292 292 292
287 287 287 287 287 287 287 287 286 285 285 285 286 286 286 286 286 286 286 286 288 288 289 290 290 290 290 290 291 291 291 291 291 292 292 291 291 291
286 286 286 286 286 286 286 286 285 285 284 285 285 286 286 286 286 286 286 286 286 287 289 289 290 289 290 290 290 290 291 290 290 290 290 290 290 290
286 286 286 286 285 285 285 285 285 284 284 284 284 285 285 285 286 286 286 286 286 286 287 288 289 289 289 289 290 290 290 290 289 289 289 289 289 289
285 285 284 285 285 285 285 285 285 285 284 284 284 284 284 285 285 285 286 286 286 285 286 288 288 289 289 289 289 290 290 289 289 289 288 288 288 288

GFSNE_850_thetae_195.txt.gz
Theta_e
301 302 301 301 301 301 301 302 304 305 305 303 303 303 303 305 306 306 305 306 307 306 304 303 304 305 306 305 304 300 299 297 296 297 300 302 306 316
301 300 301 300 300 300 300 301 302 303 304 304 302 301 301 300 301 303 304 303 302 303 303 303 303 305 305 305 305 303 300 299 297 296 298 300 302 313
301 300 300 300 299 299 299 300 300 301 302 302 302 302 300 300 300 300 302 304 303 303 305 306 304 304 305 305 305 305 302 300 297 296 296 298 300 306
298 298 298 298 298 298 298 299 300 300 300 300 300 300 300 299 300 300 301 302 301 301 303 303 304 304 305 305 305 305 304 302 298 296 295 296 297 299
295 296 296 296 296 296 296 297 298 299 299 299 299 299 299 300 299 298 298 298 299 300 303 302 302 302 304 305 305 305 304 303 300 297 295 295 295 296
292 293 293 294 294 294 292 292 292 295 298 298 298 299 298 296 297 298 299 299 300 300 300 301 301 300 301 303 304 304 304 303 301 298 296 295 294 294
289 291 292 292 292 291 291 291 291 295 297 297 297 297 296 296 296 296 297 297 298 298 299 299 300 300 300 302 302 303 304 303 302 298 297 295 294 293
288 289 291 291 291 291 290 292 294 295 296 296 296 297 297 296 296 295 296 296 297 297 297 298 299 299 299 300 301 301 303 303 302 299 297 294 293 293
287 289 290 291 291 292 291 292 291 290 294 295 295 295 295 295 295 296 296 296 296 296 296 297 297 297 298 299 299 300 299 300 301 298 295 294 293 293
287 289 289 290 290 291 292 291 290 290 291 293 293 293 292 293 293 293 293 295 296 296 296 296 296 297 297 296 298 300 301 296 296 294 294 294 294 293
288 288 289 289 289 289 290 290 291 291 291 292 293 293 292 292 293 292 292 294 294 294 294 295 296 296 297 296 297 298 300 301 300 299 296 295 294 293
287 287 288 288 289 290 290 290 289 289 291 291 292 292 292 293 293 292 291 291 293 293 294 295 295 296 296 297 297 297 298 298 298 298 296 295 294 294
286 286 286 287 288 289 289 289 289 290 290 290 289 290 290 291 291 292 292 291 291 291 292 293 293 295 296 296 297 296 296 296 295 297 296 294 293 293
286 286 286 287 287 287 288 288 289 290 289 289 290 291 291 291 291 290 290 290 290 290 291 292 292 293 293 295 295 296 296 296 296 294 296 294 294 293
286 287 288 288 288 288 289 289 289 288 289 289 289 289 289 290 290 289 289 289 291 291 291 292 291 292 293 293 293 294 296 296 295 293 292 295 294 294
287 288 288 288 288 289 289 289 289 288 288 288 288 288 288 289 287 287 288 288 289 291 291 291 291 291 292 292 293 293 294 294 295 294 291 291 292 293
288 287 287 288 288 288 289 289 288 288 288 287 287 288 287 287 286 286 287 287 287 289 290 290 290 290 291 292 292 293 293 293 293 294 294 294 291 290
287 287 287 288 288 288 289 288 288 287 287 286 286 286 286 286 286 286 286 286 286 287 289 290 290 290 290 291 291 292 292 292 292 293 293 293 293 292
287 287 287 288 288 288 288 288 287 287 287 286 285 285 286 286 286 286 286 286 286 286 288 289 290 290 289 290 291 291 291 292 292 292 292 292 293 293
286 287 287 288 288 287 286 286 286 286 286 286 285 285 285 285 286 286 286 286 286 286 286 287 288 289 289 290 290 290 291 291 291 291 291 291 292 292
286 286 286 286 286 286 286 286 285 286 285 285 284 284 284 285 285 286 286 287 287 287 286 286 287 289 289 289 289 290 290 291 290 290 290 290 290 291
286 285 285 285 285 285 285 285 286 285 285 285 285 284 284 285 285 285 285 286 286 286 286 286 286 288 289 289 289 289 290 290 290 289 289 288 289 289
284 284 284 285 285 284 284 285 285 286 285 285 284 284 284 284 284 284 285 285 286 286 286 285 285 287 288 289 289 289 289 289 289 289 288 288 288 288

GFSNE_850_thetae_198.txt.gz
Theta_e
303 302 302 302 301 301 301 301 301 302 302 302 301 301 301 301 300 300 300 301 302 301 302 303 304 305 304 303 305 305 305 304 300 299 297 297 300 308
301 300 300 300 300 299 299 299 299 300 301 300 300 301 300 299 299 299 300 300 300 302 302 303 305 306 305 305 304 305 305 305 303 300 298 297 299 303
294 294 295 296 296 297 297 297 297 298 300 300 299 299 299 299 298 298 299 299 299 300 300 300 300 303 304 304 304 305 305 305 304 301 299 296 297 300
290 290 290 291 292 292 294 295 295 295 297 298 298 297 297 297 299 299 298 297 297 297 297 298 298 299 302 302 302 303 305 305 304 303 300 297 295 297
289 289 289 289 289 290 291 293 293 292 291 291 294 296 297 299 298 298 296 296 296 297 297 299 300 302 301 301 300 301 302 304 304 304 301 297 295 295
289 288 288 288 288 289 291 291 291 291 291 292 293 295 296 296 296 296 296 296 296 295 297 297 297 298 298 299 299 301 302 303 304 304 302 298 295 294
288 288 288 287 288 289 290 290 291 292 292 292 292 293 294 295 295 295 295 296 296 295 295 296 297 297 298 299 299 299 299 302 303 303 302 299 296 294
288 287 287 287 287 288 290 291 291 292 293 292 292 291 292 294 294 295 293 292 294 293 295 294 295 296 296 297 298 298 298 300 302 303 303 301 297 294
286 286 286 287 288 289 289 290 290 290 290 290 290 291 292 292 292 292 292 293 292 292 293 294 293 297 295 296 296 297 297 298 300 302 303 302 298 294
286 286 287 288 288 288 288 288 288 288 288 287 290 291 292 292 293 293 293 293 292 291 293 293 294 294 294 295 296 296 297 297 298 298 301 300 298 294
286 286 286 287 287 288 288 289 289 288 287 287 288 289 290 291 291 291 291 291 292 291 291 292 293 292 293 294 296 296 296 297 298 296 296 294 294 293
286 286 286 286 286 288 289 289 289 287 287 288 287 287 287 287 288 290 291 291 290 292 291 291 290 291 293 294 296 294 294 296 297 297 296 297 296 295
286 286 286 286 286 287 289 288 287 288 289 289 289 288 288 289 290 291 291 291 290 290 290 290 290 291 292 292 293 294 295 296 295 295 296 295 296 295
286 286 286 286 286 287 288 288 288 289 289 289 288 289 288 288 289 289 289 289 289 288 289 290 291 291 291 291 291 293 294 295 296 296 294 295 296 295
287 287 286 286 287 288 288 288 288 289 289 289 289 288 288 288 288 289 288 287 287 287 288 290 291 291 290 291 291 291 292 293 295 295 295 295 295 296
288 288 287 287 287 286 287 287 288 289 289 287 287 287 287 287 288 287 286 286 286 286 287 288 290 290 290 290 291 291 292 292 293 294 294 293 295 295
288 288 288 287 287 286 286 287 288 289 288 287 287 286 286 286 286 286 286 286 286 286 286 286 289 290 290 290 290 291 292 292 293 293 293 293 294 294
287 287 287 287 287 286 287 287 288 288 288 287 287 286 285 285 285 285 285 285 285 286 286 286 288 288 289 290 289 290 291 292 292 292 292 293 293 292
287 287 287 286 286 286 287 287 288 287 287 286 286 286 285 284 284 285 285 285 285 286 286 286 286 288 288 289 289 290 291 291 291 291 291 291 292 293
286 286 286 286 287 287 287 288 287 286 286 285 286 285 285 284 284 285 285 286 286 286 286 286 286 287 288 289 289 289 289 290 290 291 290 290 290 291
285 285 285 285 285 285 285 286 285 285 285 285 285 285 285 284 284 284 284 284 285 286 286 286 286 285 286 288 289 289 289 290 290 290 290 290 289 290
285 285 285 284 285 285 285 285 285 285 285 285 285 285 285 284 284 284 284 284 285 285 285 286 286 285 285 287 288 288 289 289 289 290 289 289 289 289
284 285 285 284 284 284 284 284 283 284 285 285 285 285 284 284 284 284 284 284 284 285 285 286 285 285 285 286 287 288 288 289 289 289 289 288 288 288

GFSNE_850_thetae_201.txt.gz
Theta_e
302 301 301 300 300 299 299 299 299 300 299 299 299 298 298 298 298 298 298 298 299 299 299 299 299 300 302 302 305 305 305 305 306 305 305 301 298 297
293 292 292 292 292 292 292 293 295 296 298 297 297 297 295 294 295 295 296 297 298 299 298 298 298 298 298 299 301 301 304 304 304 306 305 304 300 297
291 291 291 290 290 290 290 290 291 292 294 294 294 292 291 292 294 296 296 296 297 297 296 296 296 297 298 298 300 302 301 302 303 305 306 305 302 298
290 290 290 290 289 289 289 289 290 291 292 291 291 291 291 291 293 296 297 297 295 295 295 296 296 297 299 301 301 302 302 301 301 302 304 305 304 300
289 289 289 289 288 288 288 290 291 290 290 290 290 291 291 290 293 294 293 293 293 295 295 295 295 295 295 297 299 300 300 300 300 301 303 304 304 302
289 289 289 288 287 287 287 288 289 289 290 290 291 292 291 290 291 292 293 293 293 293 293 293 295 295 295 295 297 298 298 299 300 301 302 304 304 303
289 288 288 287 287 287 287 288 289 290 291 291 292 292 291 290 291 292 292 292 292 291 291 291 291 292 293 293 295 296 297 298 298 298 301 303 304 303
288 288 287 287 287 287 287 287 289 289 290 290 290 289 288 290 291 292 292 293 292 292 292 292 291 290 292 293 294 295 295 296 297 298 299 301 302 302
288 287 287 286 286 286 287 288 288 288 287 288 288 288 287 289 291 292 292 292 292 292 291 293 291 291 292 291 293 294 295 296 296 297 297 299 301 302
287 287 286 286 286 286 287 288 287 287 287 288 287 286 287 288 289 289 289 289 289 290 291 291 291 290 290 290 291 294 295 296 296 297 297 298 299 300
287 287 286 286 286 286 287 287 287 288 288 287 286 287 287 288 288 288 289 290 290 290 291 291 290 290 290 290 291 292 293 295 296 296 296 298 299 300
287 287 286 286 286 286 287 289 289 288 287 286 287 288 288 288 288 289 289 291 290 290 290 289 289 289 290 290 291 292 292 293 295 296 296 297 298 297
287 287 287 286 286 286 286 288 288 288 289 289 289 289 288 288 288 288 289 289 288 288 288 288 288 287 290 291 290 291 291 292 293 294 295 296 297 298
288 288 287 287 287 287 287 288 289 289 288 289 289 288 288 288 287 287 288 288 287 287 286 287 287 287 289 290 290 290 291 292 292 294 294 295 295 296
287 287 287 288 288 288 287 287 288 288 287 288 288 288 287 287 286 286 287 287 286 286 286 285 286 287 289 290 290 290 290 291 292 293 294 294 294 296
287 287 287 287 287 287 287 287 286 286 287 288 288 288 287 286 285 285 285 286 286 285 285 285 286 287 288 289 289 290 290 290 292 292 293 294 294 294
287 287 287 287 287 287 286 286 286 286 287 288 288 287 286 286 285 284 284 285 285 285 285 286 286 286 287 288 289 289 290 291 291 292 292 293 294 294
287 287 287 287 287 286 286 286 286 286 287 288 288 287 286 286 285 284 284 284 285 285 285 285 285 286 286 288 289 289 289 290 291 291 291 292 293 293
285 285 285 285 285 285 285 286 287 287 287 287 286 285 286 285 285 284 284 284 285 285 285 285 286 286 286 287 287 288 289 289 290 290 290 290 291 292
285 285 285 285 285 285 285 285 285 285 286 285 285 285 285 285 285 284 283 284 284 284 285 285 286 286 285 285 285 288 289 289 289 290 290 290 290 291
284 285 285 285 285 285 284 284 285 285 285 285 285 285 285 285 285 284 284 284 284 284 284 285 286 286 286 285 286 287 288 288 289 289 289 289 289 289
284 284 284 284 284 284 284 284 284 284 284 284 284 284 285 285 285 284 284 284 284 284 284 285 285 286 285 284 285 286 288 288 288 289 289 288 288 289
283 284 284 284 284 284 284 284 284 284 284 284 284 285 285 285 284 284 284 284 284 284 284 285 285 285 285 285 284 285 287 288 288 288 288 288 288 288

GFSNE_850_thetae_204.txt.gz
Theta_e
295 294 293 292 292 292 292 292 293 295 295 294 297 293 292 291 292 292 293 294 295 296 297 298 298 298 298 298 297 298 298 302 304 304 306 308 308 306
291 291 291 291 291 290 290 290 290 291 293 293 292 291 290 290 290 291 292 293 296 297 295 295 295 295 296 296 297 298 299 302 303 303 303 305 308 307
291 291 291 290 290 290 289 289 289 289 291 290 290 290 290 290 290 290 290 292 293 293 294 294 295 295 295 296 298 299 299 300 302 302 301 303 306 307
290 290 290 289 289 289 289 288 288 288 290 291 289 289 289 289 290 290 291 291 292 292 293 293 294 295 294 295 295 297 296 298 299 300 300 300 300 304
289 289 289 289 289 288 288 287 287 287 289 289 290 290 290 289 289 288 288 290 291 291 292 292 291 291 293 292 294 294 294 295 297 298 299 300 301 302
289 288 288 288 288 287 287 287 287 288 288 289 289 289 290 289 287 287 288 289 290 291 291 292 292 291 292 291 291 291 292 294 296 296 297 298 299 301
288 288 288 288 287 287 286 286 287 288 288 288 288 288 287 287 287 287 289 290 290 291 291 291 291 289 290 291 291 291 292 294 295 295 296 297 297 299
288 288 288 287 287 287 286 286 287 288 288 288 288 288 287 288 287 287 289 289 289 288 289 289 288 289 291 291 290 290 290 291 294 295 295 296 297 298
288 287 287 287 287 286 286 286 286 286 287 288 288 287 289 287 287 288 288 288 287 287 288 289 288 290 290 289 289 289 290 293 293 294 295 295 297 297
287 287 287 287 286 286 286 286 286 286 286 286 286 287 287 286 288 289 288 288 288 289 289 289 289 290 289 288 287 289 291 292 292 293 294 296 296 297
287 287 287 287 287 286 286 286 286 285 286 287 287 287 286 288 289 288 288 288 289 289 288 290 289 288 288 287 287 288 290 291 291 292 293 296 297 296
286 286 286 286 287 287 287 286 286 285 286 287 288 288 288 289 288 288 288 287 288 289 288 287 287 287 287 286 286 286 290 290 290 292 293 294 295 295
287 287 286 286 287 287 287 287 287 286 288 289 289 288 288 288 288 288 287 287 287 287 287 286 286 285 285 287 288 288 290 290 290 291 293 293 294 294
287 287 286 286 287 287 287 288 288 288 287 287 287 287 288 288 288 286 286 286 286 287 286 285 285 285 285 285 286 288 289 289 290 292 292 292 293 294
287 286 286 287 287 287 287 287 287 287 288 287 286 286 287 287 287 286 286 285 285 285 286 285 285 285 285 285 287 287 288 289 290 291 291 292 293 294
285 286 286 286 287 287 286 287 287 286 286 286 286 286 287 288 287 286 285 285 284 285 285 285 285 285 285 285 286 287 288 289 289 290 291 292 293 293
286 286 285 285 286 285 285 286 286 286 286 286 286 287 288 287 287 286 285 285 284 284 284 284 285 285 285 285 286 288 289 289 289 290 290 292 292 293
285 285 285 285 285 285 285 285 285 285 286 286 286 287 287 286 286 286 286 284 284 284 284 285 285 285 285 285 286 286 288 288 289 289 290 290 291 292
284 284 284 285 285 284 285 285 285 285 285 285 286 286 285 285 285 285 285 284 283 283 284 284 285 285 286 285 285 285 287 288 288 289 289 290 290 291
284 284 284 284 284 284 284 285 284 284 284 285 285 285 285 285 285 285 284 284 284 283 284 284 284 285 286 285 285 285 286 288 288 288 289 289 289 290
284 284 284 284 284 284 284 284 284 284 284 284 285 285 285 285 285 285 285 284 284 284 284 283 284 284 285 286 285 285 285 286 288 288 288 289 289 289
283 283 282 283 283 283 283 283 284 284 284 284 284 284 284 285 285 285 285 284 284 284 283 284 284 285 285 285 284 285 284 286 288 288 288 288 288 288
283 282 282 282 282 282 282 283 283 283 284 284 284 284 284 284 284 285 284 284 284 284 284 284 284 284 285 285 284 284 284 285 287 288 288 288 288 288

GFSNE_850_thetae_210.txt.gz
Theta_e
293 293 292 291 291 291 290 290 289 289 289 289 290 289 289 289 289 288 288 288 288 289 289 290 290 290 290 292 293 295 296 297 297 299 299 300 301 302
292 292 291 291 290 290 290 289 289 288 287 288 288 287 287 288 288 288 288 288 288 287 287 287 289 290 291 291 292 294 295 295 296 297 298 298 298 299
291 291 291 290 290 289 289 289 288 288 287 287 287 287 287 288 287 287 287 287 286 287 287 287 287 288 291 293 292 293 291 291 292 294 293 293 295 296
291 290 290 290 289 289 289 288 288 288 287 287 287 287 287 287 287 287 286 286 286 286 286 286 286 287 289 292 293 292 290 288 289 290 292 292 293 295
291 290 290 289 289 289 288 288 288 288 287 286 286 286 286 286 286 286 286 286 286 286 286 286 286 286 286 289 289 288 287 289 290 292 292 293 293 293
290 290 289 289 289 288 288 287 287 287 287 286 286 286 286 286 286 286 286 286 286 285 286 286 287 286 286 286 286 286 288 289 289 288 288 289 292 294
290 289 289 289 288 288 287 287 287 287 286 286 286 285 285 286 286 286 286 286 286 285 287 287 287 286 286 286 287 287 288 288 288 287 290 292 293 293
289 289 289 288 288 287 287 287 286 286 286 286 286 285 286 286 286 287 286 286 287 287 288 287 286 286 286 286 287 287 287 286 286 287 290 292 293 291
289 288 288 287 287 287 286 286 286 286 286 286 286 286 286 286 286 286 287 287 288 288 288 287 286 285 286 286 286 286 286 286 287 288 288 289 290 290
288 287 287 286 286 286 286 286 286 286 286 286 287 286 286 286 287 288 289 288 288 288 287 287 286 286 286 285 286 285 285 285 285 286 287 290 290 289
287 286 286 286 286 286 287 287 287 287 286 286 287 287 287 287 287 287 288 287 287 287 287 286 286 286 285 285 285 285 285 285 285 285 288 289 289 289
286 286 286 285 285 285 287 287 287 287 287 287 287 288 288 287 287 287 286 285 286 287 287 285 285 284 284 285 285 285 285 285 285 286 287 288 289 289
286 285 285 285 285 286 287 286 286 287 287 287 287 287 287 287 287 286 286 286 286 287 287 285 284 284 284 284 285 285 285 285 286 288 288 288 289 289
285 285 284 285 286 285 285 285 286 287 286 286 286 286 286 286 286 286 286 286 287 287 287 285 284 284 284 284 284 284 285 285 286 287 287 288 289 289
285 284 285 285 285 285 284 284 284 284 284 284 285 285 285 285 285 285 285 286 286 287 286 285 285 283 283 284 284 284 284 285 285 285 288 288 288 289
285 285 285 284 284 283 284 284 284 284 284 284 284 285 285 285 285 286 286 286 286 287 286 286 285 283 283 284 284 284 284 285 285 286 287 288 288 289
285 285 284 283 283 283 283 283 284 284 284 284 284 284 284 284 284 285 286 286 285 285 285 285 284 283 283 283 284 284 284 285 284 285 287 288 288 289
285 285 284 283 283 283 284 284 284 283 284 284 284 284 284 284 284 284 285 285 285 285 285 284 284 283 283 283 284 284 285 285 284 285 286 287 288 289
284 284 283 282 282 282 282 282 282 283 282 283 283 283 283 283 284 284 284 285 285 284 284 284 283 283 283 283 283 284 284 285 284 284 285 287 288 288
283 282 282 282 282 282 282 282 282 282 282 282 283 283 283 283 283 283 283 284 284 284 284 284 284 283 283 283 283 284 284 284 284 284 285 287 288 288
282 282 282 282 282 282 282 281 281 281 281 281 282 282 283 283 283 283 283 284 284 284 284 284 284 283 283 283 283 284 284 284 284 283 285 287 287 288
281 281 281 281 281 281 281 280 280 280 280 281 281 282 282 282 282 283 283 283 284 284 284 284 284 283 283 283 283 284 284 284 284 284 287 287 287 286
281 281 280 280 280 280 280 280 280 280 280 281 281 281 281 281 281 282 282 283 283 283 284 284 284 283 283 283 283 283 283 283 283 284 287 287 287 287